Location: Byhalia Creek
(34.8270°N, 89.8040°W)
Time: 16:27:14
(UTC+00:00)

Cosmos 2341 Rocket - Pass Details

Date: 22 April 2026
Orbit: 968 x 1002 km, 82.9° (Epoch: 9 May)

Event Time Altitude Azimuth Distance (km) Brightness Sun altitude
Rises 01:21:38 0° 184° (S) 3,655 6.8 -9.6°
Reaches altitude 10° 01:24:07 10° 184° (S) 2,715 6.1 -10.1°
Maximum altitude 01:30:21 88° 96° (E) 988 4.0 -11.2°
Drops below altitude 10° 01:36:41 10° 7° (N) 2,754 6.6 -12.4°
Sets 01:39:14 0° 7° (N) 3,711 7.3 -12.9°
